Regional Weather Roundup
Issued by NWS

Home | Current Version | Previous Version | Text Only | Print | Product List | Glossary Off
Versions: 1 2 3 4 5 6 7 8 9 10 11 12 13 14 15 16 17 18 19 20 21 22 23 24 25 26 27 28 29 30 31 32 33 34 35 36 37 38 39 40 41 42 43 44 45 46 47 48 49 50

000
ASUS43 KDTX 030001
RWRMI
MICHIGAN HOURLY REGIONAL WEATHER ROUNDUP
NATIONAL WEATHER SERVICE DETROIT/PONTIAC MI
800 PM EDT TUE JUN 02 2015

NOTE: "FAIR" INDICATES FEW OR NO CLOUDS BELOW 12,000 FEET WITH NO
SIGNIFICANT WEATHER AND/OR OBSTRUCTION TO VISIBILITY.

MIZ047>049-052>055-059>063-066>070-074>076-081>083-030100-
SOUTHEAST LOWER MICHIGAN

CITY           SKY/WX    TMP DP  RH WIND       PRES   REMARKS
ADRIAN         SUNNY     63  43  48 SE10      30.15R
6HR MIN TEMP:  63; 6HR MAX TEMP:  68;

ALMA           SUNNY     69  43  38 S5        30.12S
6HR MIN TEMP:  66; 6HR MAX TEMP:  71;

ANN ARBOR      SUNNY     64  49  57 SE7       30.13S
BAD AXE        MOSUNNY   62  39  42 E5        30.15S
CARO           SUNNY     66  43  42 E5        30.13S
DETROIT CITY   MOCLDY    64  51  62 SE7       30.14S
6HR MIN TEMP:  63; 6HR MAX TEMP:  69;

DETROIT        PTCLDY    66  49  54 E8        30.14R
6HR MIN TEMP:  66; 6HR MAX TEMP:  69;

FLINT          MOSUNNY   69  44  40 E8        30.12S
6HR MIN TEMP:  69; 6HR MAX TEMP:  74;

GROSSE ILE     PTCLDY    64  50  59 E6        30.13S
HILLSDALE      SUNNY     64  44  47 SE9       30.14R
6HR MIN TEMP:  64; 6HR MAX TEMP:  70;

HOWELL         SUNNY     67  45  43 S7        30.12S
6HR MIN TEMP:  67; 6HR MAX TEMP:  71;


CITY           SKY/WX    TMP DP  RH WIND       PRES   REMARKS
JACKSON        SUNNY     65  48  54 SE10      30.13R
6HR MIN TEMP:  65; 6HR MAX TEMP:  71;

LAMBERTVILLE   CLEAR     63  43  48 E6        30.15R
LANSING        SUNNY     69  46  43 S5        30.12R
6HR MIN TEMP:  67; 6HR MAX TEMP:  72;

LAPEER         FAIR      65  38  36 CALM      30.14S
MASON          SUNNY     65  48  54 SE5       30.12R
MONROE         PTCLDY    63  46  55 SE7       30.13S
MT. CLEMENS    PTCLDY    62  53  71 S6        30.12S
6HR MIN TEMP:  62; 6HR MAX TEMP:  68;

PONTIAC        MOCLDY    67  42  40 SE8       30.13R
6HR MIN TEMP:  67; 6HR MAX TEMP:  71;

PORT HOPE        N/A     54  43  66 NE3       30.15F
6HR MIN TEMP:  54; 6HR MAX TEMP:  58;

PORT HURON     CLEAR     59  45  58 NE5       30.16R
TRI CITIES     SUNNY     66  41  40 NE9       30.14S
6HR MIN TEMP:  66; 6HR MAX TEMP:  71;

MIDLAND        FAIR      65  39  39 E8        30.13R
TROY           MOCLDY    69  51  54 SE7       30.15S
SAGINAW HB     SUNNY     64  36  34 N8        30.13R
$$
MIZ043>046-050>051-056>058-064>065-071>073-077>080-030100-
SOUTHWEST LOWER MICHIGAN

CITY           SKY/WX    TMP DP  RH WIND       PRES   REMARKS
BATTLE CREEK   SUNNY     70  49  47 S7        30.11S
6HR MIN TEMP:  68; 6HR MAX TEMP:  72;

BENTON HARBOR  SUNNY     59  46  62 VRB5      30.10S
6HR MIN TEMP:  59; 6HR MAX TEMP:  64;

BIG RAPIDS     SUNNY     68  34  28 SE7       30.11S
6HR MIN TEMP:  67; 6HR MAX TEMP:  71;

COLDWATER      SUNNY     65  47  52 SE7       30.12R
6HR MIN TEMP:  65; 6HR MAX TEMP:  69;

FREMONT        FAIR      67  43  41 W7        30.11R
HOLLAND        SUNNY     64  47  53 NW7       30.11S
6HR MIN TEMP:  64; 6HR MAX TEMP:  72;

GRAND RAPIDS   MOSUNNY   69  48  47 E8        30.11S
6HR MIN TEMP:  66; 6HR MAX TEMP:  72;

IONIA          FAIR      69  47  45 SE6       30.10S
KALAMAZOO      SUNNY     70  48  45 VRB3      30.10S
6HR MIN TEMP:  69; 6HR MAX TEMP:  73;

LUDINGTON      MOSUNNY   62  33  33 CALM      30.13S
6HR MIN TEMP:  58; 6HR MAX TEMP:  64;

MARSHALL       SUNNY     68  48  48 SE6       30.11R
MOUNT PLEASANT SUNNY     69  41  35 S3        30.11S
6HR MIN TEMP:  67; 6HR MAX TEMP:  71;

MUSKEGON       PTSUNNY   64  41  42 NW6       30.11S
6HR MIN TEMP:  64; 6HR MAX TEMP:  67;

SOUTH HAVEN    SUNNY     60  45  57 N5        30.10S
$$
MIZ016>042-030100-
NORTHERN LOWER MICHIGAN

CITY           SKY/WX    TMP DP  RH WIND       PRES   REMARKS
ALPENA         SUNNY     62  35  36 SE10      30.15R
6HR MIN TEMP:  62; 6HR MAX TEMP:  68;

BEAVER ISLAND  MOSUNNY   60  34  37 NE5       30.13R
6HR MIN TEMP:  60; 6HR MAX TEMP:  66;

BELLAIRE       SUNNY     67  38  35 N3        30.10S
6HR MIN TEMP:  67; 6HR MAX TEMP:  74;

CADILLAC       SUNNY     69  37  31 SE7       30.11S
CHARLEVOIX     MOSUNNY   58  32  38 CALM      30.14F
6HR MIN TEMP:  55; 6HR MAX TEMP:  63;

FRANKFORT      MOSUNNY   58  39  50 NW3       30.13S
GAYLORD        SUNNY     69  33  26 S7        30.11S
6HR MIN TEMP:  68; 6HR MAX TEMP:  73;

GRAYLING       SUNNY     69  36  30 S6        30.13S
HARBOR SPRINGS SUNNY     55  43  65 CALM      30.11S
HOUGHTON LAKE  SUNNY     66  38  35 SE9       30.13R
6HR MIN TEMP:  66; 6HR MAX TEMP:  71;

MANISTEE       MOSUNNY   57  39  51 W7        30.14S
OSCODA         SUNNY     62  32  32 SE3       30.15S
PELLSTON       SUNNY     65  36  34 N7        30.12S
6HR MIN TEMP:  65; 6HR MAX TEMP:  72;

ROGERS CITY    SUNNY     64  34  32 SE10      30.13S
TRAVERSE CITY  PTSUNNY   58  41  53 N8        30.11R
6HR MIN TEMP:  58; 6HR MAX TEMP:  69;

$$
MIZ007>008-015-030100-
EASTERN UPPER MICHIGAN

CITY           SKY/WX    TMP DP  RH WIND       PRES   REMARKS
KINROSS        SUNNY     64  34  32 S7        30.13R
6HR MIN TEMP:  64; 6HR MAX TEMP:  70;

MACKINAC ISLAN SUNNY     56  34  43 E7        30.12F
6HR MIN TEMP:  56; 6HR MAX TEMP:  64;

NEWBERRY       SUNNY     64  36  36 S13       30.10S
S. S. MARIE    SUNNY     66  39  37 SE8       30.11R
6HR MIN TEMP:  66; 6HR MAX TEMP:  71;

$$
MIZ004>006-011>014-085-030100-
CENTRAL UPPER MICHIGAN

CITY           SKY/WX    TMP DP  RH WIND       PRES   REMARKS
MANISTIQUE     MOSUNNY   54  36  49 S5        30.11S
ESCANABA       SUNNY     61  45  55 SE8       30.08S
6HR MIN TEMP:  57; 6HR MAX TEMP:  64;

MENOMINEE      SUNNY     64  39  39 S12G20    30.08R
6HR MIN TEMP:  64; 6HR MAX TEMP:  68;

SAWYER-GWINN   SUNNY     66  43  42 S16G22    30.05S
$$
MIZ001>003-009>011-084-030100-
WESTERN UPPER MICHIGAN

CITY           SKY/WX    TMP DP  RH WIND       PRES   REMARKS
IRON MOUNTAIN  SUNNY     68  44  42 SE13      30.04S
6HR MIN TEMP:  68; 6HR MAX TEMP:  73;

HOUGHTON       PTSUNNY   63  35  35 E5        29.98F
6HR MIN TEMP:  62; 6HR MAX TEMP:  70;

COPPER HARBOR    N/A     63  36  36 SW6       29.97F
6HR MIN TEMP:  55; 6HR MAX TEMP:  69;

IRONWOOD       MOSUNNY   72  43  35 S10G16    29.95R
6HR MIN TEMP:  68; 6HR MAX TEMP:  75;

$$

ABBREVIATIONS USED IN REMARKS
   TC - TEMPERATURE IN CELSIUS
  WCI - WIND CHILL INDEX
   HX - HEAT INDEX
  VSB - VISIBILITY



USA.gov is the U.S. government's official web portal to all federal, state and local government web resources and services.